Weather History for Astoria, OR

Change the Weather History Date:

Friday, August 2, 2013

  Actual Average Record
Temperature  
Mean Temperature 60 °F 61 °F  
Max Temperature 64 °F 68 °F 88 °F (1939)
Min Temperature 56 °F 54 °F 45 °F (1969)
Degree Days  
Heating Degree Days 5 4  
Month to date heating degree days 10 8  
Since 1 June heating degree days 333 400  
Since 1 July heating degree days 152 158  
Cooling Degree Days 0 0  
Month to date cooling degree days 0 0  
Year to date cooling degree days 4 3  
Since 1 June cooling degree days 3 3  
Growing Degree Days 9 (Base 50)    
Moisture  
Dew Point 57 °F    
Average Humidity 89    
Maximum Humidity 100    
Minimum Humidity 78    
Precipitation  
Precipitation 0.07 in 0.03 in 1.64 in (1956)
Month to date precipitation 0.09 0.05  
Year to date precipitation 35.09 36.99  
Snow  
Snow 0.00 in - - ()
Month to date snowfall 0.0  
Since 1 June snowfall 0.0  
Since 1 July snowfall 0.0  
Snow Depth 0.00 in    
Sea Level Pressure  
Sea Level Pressure 30.12 in    
Wind  
Wind Speed 8 mph (SW)    
Max Wind Speed 13 mph    
Max Gust Speed 16 mph    
Visibility 8 miles    
Events Rain    
T = Trace of Precipitation, MM = Missing Value Source: NWS Daily Summary

Daily Weather History Graph

Daily Weather History Graph

Search for Another Location

Airport:

Trip Planner

Search our weather history database for the weather conditions in past years. The results will help you decide how hot, cold, wet, or windy it might be!

Date:

Astronomy

Aug. 02, 2013 Rise Set
Actual Time 5:59 AM PDT 8:43 PM PDT
Civil Twilight 5:24 AM PDT 9:17 PM PDT
Nautical Twilight 4:40 AM PDT 10:01 PM PDT
Astronomical Twilight 3:49 AM PDT 10:52 PM PDT
Moon 2:22 AM PDT (8/2) 5:48 PM PDT (8/2)
Length of Visible Light 15h 53m
Length of Day
14h 44m
Waning Crescent, 15% of the Moon is Illuminated
Aug 2
Waning Crescent
Aug 6
New
Aug 14
First Quarter
Aug 20
Full
Aug 28
Last Quarter

Hourly Weather History & Observations

Time (PDT) Temp. Dew Point Humidity Pressure Visibility Wind Dir Wind Speed Gust Speed Precip Events Conditions
12:37 AM 57.2 °F 55.4 °F 94% 30.11 in 6.0 mi SSW 8.1 mph - 0.00 in Rain Light Rain
12:44 AM 57.2 °F 55.4 °F 94% 30.11 in 8.0 mi South 4.6 mph - 0.00 in Rain Light Rain
12:51 AM 57.2 °F 55.4 °F 94% 30.11 in 10.0 mi SSW 5.8 mph - 0.00 in   Overcast
12:55 AM 57.0 °F 55.9 °F 96% 30.11 in 10.0 mi South 5.8 mph - 0.00 in   Overcast
1:28 AM 57.2 °F 55.4 °F 94% 30.11 in 6.0 mi South 6.9 mph - 0.00 in Rain Light Rain
1:45 AM 57.2 °F 55.4 °F 94% 30.10 in 9.0 mi SSW 4.6 mph - 0.00 in   Overcast
1:55 AM 57.0 °F 55.9 °F 96% 30.10 in 10.0 mi SSW 6.9 mph - 0.00 in   Overcast
2:29 AM 57.2 °F 57.2 °F 100% 30.10 in 6.0 mi South 3.5 mph - N/A   Overcast
2:42 AM 57.2 °F 57.2 °F 100% 30.10 in 4.0 mi Calm Calm - 0.01 in Rain Light Rain
2:55 AM 57.0 °F 57.0 °F 100% 30.10 in 3.0 mi Calm Calm - 0.02 in Rain Light Rain
3:55 AM 55.9 °F 55.9 °F 100% 30.10 in 10.0 mi SSW 6.9 mph - 0.01 in   Overcast
4:03 AM 55.4 °F 55.4 °F 100% 30.10 in 10.0 mi SW 8.1 mph - N/A   Overcast
4:55 AM 55.9 °F 55.9 °F 100% 30.10 in 4.0 mi SW 5.8 mph - 0.00 in Rain Light Rain
5:21 AM 55.4 °F 55.4 °F 100% 30.10 in 2.5 mi SSW 4.6 mph - 0.01 in Rain Light Rain
5:28 AM 55.4 °F 55.4 °F 100% 30.09 in 5.0 mi SW 6.9 mph - 0.01 in Rain Light Rain
5:55 AM 55.9 °F 55.9 °F 100% 30.10 in 10.0 mi SSW 4.6 mph - 0.01 in   Overcast
6:18 AM 55.4 °F 55.4 °F 100% 30.10 in 10.0 mi SW 6.9 mph - N/A   Overcast
6:33 AM 55.4 °F 55.4 °F 100% 30.11 in 10.0 mi SW 5.8 mph - N/A   Overcast
6:55 AM 55.9 °F 55.9 °F 100% 30.11 in 4.0 mi SSW 8.1 mph - 0.00 in Rain Light Rain
7:12 AM 57.2 °F 57.2 °F 100% 30.11 in 2.0 mi SSW 6.9 mph - 0.01 in Rain Light Rain
7:34 AM 57.2 °F 57.2 °F 100% 30.12 in 4.0 mi SSW 6.9 mph - 0.01 in   Overcast
7:40 AM 57.2 °F 57.2 °F 100% 30.12 in 2.0 mi SSW 5.8 mph - 0.01 in Rain Light Rain
7:51 AM 57.2 °F 57.2 °F 100% 30.12 in 3.0 mi SSW 4.6 mph - 0.02 in Rain Light Rain
7:55 AM 57.0 °F 57.0 °F 100% 30.12 in 4.0 mi SSW 4.6 mph - 0.02 in   Overcast
8:18 AM 57.2 °F 57.2 °F 100% 30.12 in 1.8 mi SSW 6.9 mph - N/A   Overcast
8:41 AM 57.2 °F 57.2 °F 100% 30.13 in 3.0 mi SSW 6.9 mph - 0.01 in   Overcast
8:55 AM 57.0 °F 57.0 °F 100% 30.13 in 10.0 mi SW 8.1 mph - 0.01 in   Overcast
9:52 AM 59.0 °F 57.2 °F 94% 30.13 in 10.0 mi SW 5.8 mph - N/A   Overcast
9:55 AM 59.0 °F 57.9 °F 96% 30.14 in 10.0 mi SW 8.1 mph - N/A   Overcast
10:10 AM 60.8 °F 59.0 °F 94% 30.13 in 10.0 mi SW 6.9 mph - N/A   Overcast
10:27 AM 60.8 °F 57.2 °F 88% 30.13 in 10.0 mi SW 8.1 mph - N/A   Overcast
10:47 AM 60.8 °F 57.2 °F 88% 30.13 in 10.0 mi WSW 8.1 mph - N/A   Overcast
10:55 AM 61.0 °F 57.9 °F 90% 30.12 in 10.0 mi WSW 10.4 mph - N/A   Mostly Cloudy
11:55 AM 61.0 °F 57.0 °F 87% 30.14 in 10.0 mi WSW 8.1 mph - N/A   Overcast
12:55 PM 61.0 °F 55.9 °F 83% 30.14 in 10.0 mi WSW 10.4 mph - N/A   Mostly Cloudy
1:02 PM 60.8 °F 57.2 °F 88% 30.14 in 10.0 mi SW 10.4 mph - N/A   Mostly Cloudy
1:45 PM 62.6 °F 57.2 °F 82% 30.14 in 10.0 mi WSW 8.1 mph - N/A   Mostly Cloudy
1:55 PM 62.1 °F 57.9 °F 86% 30.14 in 10.0 mi WSW 10.4 mph - N/A   Mostly Cloudy
2:19 PM 62.6 °F 57.2 °F 82% 30.14 in 10.0 mi SW 10.4 mph - N/A   Scattered Clouds
2:55 PM 64.0 °F 57.9 °F 80% 30.15 in 10.0 mi SSW 8.1 mph - N/A   Mostly Cloudy
3:26 PM 64.4 °F 57.2 °F 77% 30.14 in 10.0 mi WSW 9.2 mph - N/A   Mostly Cloudy
3:55 PM 63.0 °F 57.0 °F 81% 30.14 in 10.0 mi West 10.4 mph - N/A   Mostly Cloudy
4:31 PM 62.6 °F 57.2 °F 82% 30.14 in 10.0 mi West 9.2 mph - N/A   Mostly Cloudy
4:52 PM 62.6 °F 55.4 °F 77% 30.14 in 10.0 mi West 8.1 mph - N/A   Overcast
4:55 PM 62.1 °F 55.9 °F 80% 30.14 in 10.0 mi WSW 9.2 mph - N/A   Overcast
5:45 PM 62.6 °F 57.2 °F 82% 30.13 in 10.0 mi West 6.9 mph - N/A   Overcast
5:55 PM 62.1 °F 55.9 °F 80% 30.14 in 10.0 mi West 5.8 mph - N/A   Overcast
6:55 PM 62.1 °F 55.9 °F 80% 30.13 in 10.0 mi WSW 5.8 mph - N/A   Overcast
7:55 PM 60.1 °F 55.9 °F 86% 30.13 in 10.0 mi West 6.9 mph - N/A   Overcast
8:55 PM 57.9 °F 55.9 °F 93% 30.13 in 10.0 mi SW 3.5 mph - N/A   Overcast
9:44 PM 57.2 °F 55.4 °F 94% 30.13 in 10.0 mi Calm Calm - N/A   Overcast
9:55 PM 57.0 °F 55.9 °F 96% 30.13 in 10.0 mi Calm Calm - N/A   Overcast
10:55 PM 57.0 °F 55.9 °F 96% 30.14 in 10.0 mi WSW 3.5 mph - N/A   Overcast
11:55 PM 55.9 °F 55.9 °F 100% 30.13 in 10.0 mi SW 3.5 mph - N/A   Mostly Cloudy